TimeMDT,TemperatureF,Dew PointF,Humidity,Sea Level PressureIn,VisibilityMPH,Wind Direction,Wind SpeedMPH,Gust SpeedMPH,PrecipitationIn,Events,Conditions,WindDirDegrees,DateUTC
12:15 AM,33.8,28.4,81,29.90,-9999.0,NE,3.5,-,N/A,,Overcast,40,2013-03-21 06:15:00
12:35 AM,33.8,28.4,81,29.90,-9999.0,Calm,Calm,-,N/A,,Overcast,0,2013-03-21 06:35:00
12:55 AM,32.0,28.4,87,29.89,-9999.0,Calm,Calm,-,N/A,,Mostly Cloudy,0,2013-03-21 06:55:00
1:15 AM,32.0,26.6,80,29.88,-9999.0,Calm,Calm,-,N/A,,Scattered Clouds,0,2013-03-21 07:15:00
1:35 AM,32.0,26.6,80,29.87,-9999.0,SSE,3.5,-,N/A,,Mostly Cloudy,160,2013-03-21 07:35:00
1:55 AM,30.2,26.6,86,29.86,-9999.0,Calm,Calm,-,N/A,,Mostly Cloudy,0,2013-03-21 07:55:00
2:15 AM,32.0,26.6,80,29.86,-9999.0,Calm,Calm,-,N/A,,Mostly Cloudy,0,2013-03-21 08:15:00
2:35 AM,30.2,26.6,86,29.85,-9999.0,West,3.5,-,N/A,,Overcast,280,2013-03-21 08:35:00
2:55 AM,30.2,26.6,86,29.83,-9999.0,Calm,Calm,-,N/A,,Mostly Cloudy,0,2013-03-21 08:55:00
3:14 AM,30.2,26.6,86,29.82,-9999.0,Calm,Calm,-,N/A,,Unknown,0,2013-03-21 09:14:00
3:34 AM,30.2,26.6,86,29.80,-9999.0,Calm,Calm,-,N/A,,Unknown,0,2013-03-21 09:34:00
3:55 AM,28.4,24.8,86,29.78,-9999.0,Calm,Calm,-,N/A,,Unknown,0,2013-03-21 09:55:00
4:15 AM,30.2,26.6,86,29.78,-9999.0,NNW,4.6,-,N/A,,Unknown,330,2013-03-21 10:15:00
4:35 AM,30.2,26.6,86,29.77,-9999.0,West,3.5,-,N/A,,Overcast,260,2013-03-21 10:35:00
4:55 AM,30.2,26.6,86,29.77,-9999.0,Calm,Calm,-,N/A,,Overcast,0,2013-03-21 10:55:00
5:15 AM,30.2,26.6,86,29.77,-9999.0,Calm,Calm,-,N/A,,Overcast,0,2013-03-21 11:15:00
5:35 AM,32.0,28.4,87,29.77,-9999.0,West,3.5,-,N/A,,Unknown,260,2013-03-21 11:35:00
5:55 AM,30.2,28.4,93,29.76,-9999.0,Calm,Calm,-,N/A,,Overcast,0,2013-03-21 11:55:00
6:15 AM,30.2,28.4,93,29.75,-9999.0,Calm,Calm,-,0.01,,Overcast,0,2013-03-21 12:15:00
6:35 AM,32.0,30.2,93,29.74,-9999.0,Calm,Calm,-,0.01,,Overcast,0,2013-03-21 12:35:00
6:55 AM,32.0,30.2,93,29.74,-9999.0,Calm,Calm,-,0.01,,Overcast,0,2013-03-21 12:55:00
7:15 AM,32.0,30.2,93,29.74,-9999.0,East,3.5,-,N/A,,Overcast,90,2013-03-21 13:15:00
7:35 AM,32.0,30.2,93,29.73,-9999.0,East,3.5,-,N/A,,Unknown,80,2013-03-21 13:35:00
7:55 AM,32.0,30.2,93,29.73,-9999.0,South,4.6,-,N/A,,Unknown,180,2013-03-21 13:55:00
8:15 AM,33.8,32.0,93,29.72,-9999.0,NNW,4.6,-,N/A,,Mostly Cloudy,340,2013-03-21 14:15:00
8:35 AM,33.8,30.2,87,29.73,-9999.0,SSE,5.8,-,N/A,,Overcast,150,2013-03-21 14:35:00
8:55 AM,35.6,30.2,81,29.73,-9999.0,West,3.5,-,N/A,,Overcast,280,2013-03-21 14:55:00
9:15 AM,35.6,30.2,81,29.72,-9999.0,Calm,Calm,-,N/A,,Overcast,0,2013-03-21 15:15:00
9:35 AM,35.6,30.2,81,29.72,-9999.0,SSE,5.8,-,N/A,,Overcast,160,2013-03-21 15:35:00
9:55 AM,35.6,28.4,75,29.71,-9999.0,Calm,Calm,-,N/A,,Overcast,0,2013-03-21 15:55:00
10:35 AM,39.2,28.4,65,29.69,-9999.0,SE,5.8,-,N/A,,Overcast,140,2013-03-21 16:35:00
10:55 AM,37.4,30.2,75,29.69,-9999.0,SW,9.2,-,N/A,,Overcast,230,2013-03-21 16:55:00
11:15 AM,37.4,28.4,70,29.67,-9999.0,South,3.5,-,N/A,,Mostly Cloudy,190,2013-03-21 17:15:00
11:35 AM,39.2,30.2,70,29.67,-9999.0,WSW,6.9,-,N/A,,Mostly Cloudy,240,2013-03-21 17:35:00
11:54 AM,37.4,30.2,75,29.67,-9999.0,WSW,25.3,31.1,N/A,,Overcast,250,2013-03-21 17:54:00
12:15 PM,33.8,28.4,81,29.67,-9999.0,WSW,11.5,-,N/A,,Overcast,240,2013-03-21 18:15:00
12:35 PM,35.6,28.4,75,29.71,-9999.0,NNW,16.1,24.2,N/A,,Overcast,330,2013-03-21 18:35:00
12:55 PM,33.8,21.2,60,29.73,-9999.0,NW,12.7,21.9,N/A,,Overcast,310,2013-03-21 18:55:00
1:15 PM,33.8,19.4,56,29.73,-9999.0,NW,18.4,26.5,N/A,,Overcast,320,2013-03-21 19:15:00
1:35 PM,33.8,21.2,60,29.77,-9999.0,NNW,12.7,18.4,N/A,,Overcast,340,2013-03-21 19:35:00
1:55 PM,32.0,19.4,60,29.78,-9999.0,NNW,10.4,23.0,N/A,,Overcast,340,2013-03-21 19:55:00
2:15 PM,32.0,19.4,60,29.78,-9999.0,NNW,17.3,26.5,N/A,,Mostly Cloudy,340,2013-03-21 20:15:00
2:35 PM,32.0,19.4,60,29.78,-9999.0,North,12.7,21.9,N/A,,Mostly Cloudy,350,2013-03-21 20:35:00
2:55 PM,33.8,19.4,56,29.78,-9999.0,NNW,10.4,16.1,N/A,,Mostly Cloudy,340,2013-03-21 20:55:00
3:15 PM,33.8,17.6,52,29.78,-9999.0,NW,13.8,19.6,N/A,,Mostly Cloudy,320,2013-03-21 21:15:00
3:34 PM,32.0,12.2,44,29.78,-9999.0,NW,16.1,21.9,N/A,,Mostly Cloudy,320,2013-03-21 21:34:00
3:55 PM,32.0,15.8,51,29.78,-9999.0,NNW,10.4,25.3,N/A,,Mostly Cloudy,330,2013-03-21 21:55:00
4:14 PM,32.0,15.8,51,29.78,-9999.0,NW,15.0,24.2,N/A,,Overcast,320,2013-03-21 22:14:00
4:35 PM,32.0,17.6,55,29.79,-9999.0,NW,11.5,20.7,N/A,,Mostly Cloudy,320,2013-03-21 22:35:00
4:54 PM,33.8,17.6,52,29.78,-9999.0,NW,13.8,19.6,N/A,,Mostly Cloudy,320,2013-03-21 22:54:00
5:15 PM,33.8,17.6,52,29.79,-9999.0,NNW,13.8,-,N/A,,Scattered Clouds,330,2013-03-21 23:15:00
5:35 PM,33.8,17.6,52,29.79,-9999.0,NNW,13.8,17.3,N/A,,Clear,330,2013-03-21 23:35:00
5:55 PM,32.0,19.4,60,29.82,-9999.0,NNW,8.1,-,N/A,,Clear,330,2013-03-21 23:55:00
6:15 PM,32.0,17.6,55,29.84,-9999.0,North,8.1,-,N/A,,Mostly Cloudy,360,2013-03-22 00:15:00
6:35 PM,32.0,15.8,51,29.85,-9999.0,NW,10.4,-,N/A,,Overcast,310,2013-03-22 00:35:00
6:55 PM,30.2,17.6,60,29.86,-9999.0,WNW,6.9,-,N/A,,Overcast,300,2013-03-22 00:55:00
7:14 PM,30.2,17.6,60,29.86,-9999.0,NNW,8.1,-,N/A,,Overcast,340,2013-03-22 01:14:00
7:35 PM,30.2,19.4,64,29.88,-9999.0,NNW,11.5,16.1,N/A,,Overcast,340,2013-03-22 01:35:00
7:55 PM,30.2,21.2,69,29.88,-9999.0,NW,8.1,-,N/A,,Overcast,320,2013-03-22 01:55:00
8:14 PM,30.2,19.4,64,29.88,-9999.0,NW,9.2,-,N/A,,Overcast,320,2013-03-22 02:14:00
8:35 PM,30.2,17.6,60,29.89,-9999.0,WNW,6.9,-,N/A,,Overcast,300,2013-03-22 02:35:00
8:55 PM,28.4,14.0,55,29.89,-9999.0,NW,12.7,-,N/A,,Overcast,320,2013-03-22 02:55:00
9:15 PM,28.4,12.2,51,29.90,-9999.0,NW,13.8,18.4,N/A,,Mostly Cloudy,320,2013-03-22 03:15:00
9:35 PM,28.4,12.2,51,29.90,-9999.0,NW,13.8,18.4,N/A,,Scattered Clouds,310,2013-03-22 03:35:00
9:55 PM,28.4,12.2,51,29.90,-9999.0,NW,9.2,19.6,N/A,,Clear,310,2013-03-22 03:55:00
10:15 PM,26.6,10.4,51,29.91,-9999.0,SSW,3.5,-,N/A,,Clear,210,2013-03-22 04:15:00
10:35 PM,24.8,10.4,54,29.92,-9999.0,West,3.5,-,N/A,,Clear,280,2013-03-22 04:35:00
10:55 PM,24.8,10.4,54,29.92,-9999.0,Calm,Calm,-,N/A,,Clear,0,2013-03-22 04:55:00
11:15 PM,23.0,10.4,59,29.93,-9999.0,Calm,Calm,-,N/A,,Clear,0,2013-03-22 05:15:00
11:34 PM,23.0,10.4,59,29.92,-9999.0,Calm,Calm,-,N/A,,Clear,0,2013-03-22 05:34:00
11:54 PM,23.0,10.4,59,29.92,-9999.0,Calm,Calm,-,N/A,,Clear,0,2013-03-22 05:54:00